Location: Godzisko
(49.9648°N, 19.4576°E)
Time: 07:23:29
(UTC+00:00)

Meteor 1-28 Rocket - Pass Details

Date: 20 April 2021
Orbit: 502 x 523 km, 97.4° (Epoch: 06 May)

Event Time Altitude Azimuth Distance (km) Brightness Sun altitude
Exits shadow 01:39:58 40° 231° (SW) 756 3.5 -17.1°
Maximum altitude 01:40:36 45° 261° (W) 704 3.5 -17.1°
Drops below altitude 10° 01:44:11 10° 335° (NNW) 1,730 6.1 -16.6°
Sets 01:46:20 0° 342° (NNW) 2,618 7.1 -16.4°
